Welcome to the New NWS' Forecast!
Most changes are behind the scenes, but click here for differences you might notice.
Latest weather observations around

Ardmore, Ardmore Municipal Airport (KADM)

Using English Units (Switch to International System of Units)
Date/ Time (CST) Wind (mph) Vis. (mi) Weather Sky Cond. Temp (°F) Rel. Humidity Wind Chill (°F) Heat Index (°F) Pressure Precip. (in)
Air Dwpt 6 hour Altimeter (inHg) Sea level (inHg) 1 hr 3 hr 6 hr
Max Min
Notice The following observation data may not be complete
Jan 18 01:35   10 Clear CLR          %              
Jan 18 01:15 Calm 10 Clear CLR 14 12     91%     30.55        
Jan 18 00:35 Calm 10 Clear CLR 15 11     86%     30.57        
Jan 18 00:15 Calm 10 Clear CLR 15 10     83%     30.57        
Jan 17 23:55 Calm 10 Clear CLR 15 11     82%     30.58        
Jan 17 23:35 Calm 10 Clear CLR 15 9     76%     30.58        
Jan 17 23:15 Calm 10 Clear CLR 17 10     74%     30.58        
Jan 17 22:55 Calm 10 Clear CLR 17 11     78%     30.58        
Jan 17 22:35 Calm 10 Clear CLR 17 11     79%     30.58        
Jan 17 22:15 Calm 10 Clear CLR 17 10     74%     30.58        
Jan 17 21:55 Calm 10 Clear CLR 19 9     62%     30.58        
Jan 17 21:35 Calm 10 Clear CLR 18 10     69%     30.58        
Jan 17 21:15 Calm 10 Clear CLR 21 11     64%     30.58        
Jan 17 20:55 Calm 10 Clear CLR 21 10     63%     30.58        
Jan 17 20:35 Calm 10 Clear CLR 20 8     60%     30.58        
Jan 17 20:15 Calm 10 Clear CLR 20 8     57%     30.58        
Jan 17 19:55 Calm 10 Clear CLR 21 8     57%     30.58        
Jan 17 19:35 Calm 10 Clear CLR 23 7     51%     30.58        
Jan 17 19:15 Calm 10 Clear CLR 26 8     44%     30.59        
Jan 17 18:55 Calm 10 Clear CLR 27 7     42%     30.58        
Jan 17 18:35 Calm 10 Clear CLR 29 7     39%     30.59        
Jan 17 18:15 Calm 10 Clear CLR 29 6     36%     30.59        
Jan 17 17:55 Calm 10 Clear CLR 30 5     34%     30.59        
Jan 17 17:35 Calm 10 Clear CLR 32 6     33%     30.6        
Jan 17 17:15 Calm 10 Clear CLR 33 6     31%     30.6        
Jan 17 16:55 Calm 10 Clear CLR 34 7     32%     30.6        
Jan 17 15:55 Calm 10 Clear CLR 34 7     32%     30.61        
Jan 17 14:55 S 3 10 Clear CLR 34 7     32% 31   30.63        
Jan 17 13:55 Calm 10 Clear CLR 32 7     34%     30.66        
Jan 17 12:55 Calm 10 Clear CLR 28 7     39%     30.69        
Jan 17 11:55 SSE 3 10 Clear CLR 25 9     50% 21   30.74        
Jan 17 10:55 Calm 10 Clear CLR 21 7     53%     30.77        
Jan 17 09:55 Calm 10 Clear CLR 18 9     67%     30.77        
Jan 17 08:55 Calm 10 Clear   12 7     79%     30.76        
Jan 17 07:55 Calm 10 Clear   5 3     92%     30.75        
Jan 17 06:55 Calm 10 Clear CLR 5 3     92%     30.74        
Jan 17 06:35 Calm 10 Clear CLR 5 3     91%     30.74        
Jan 17 06:15 Calm 10 Clear CLR 5 3     91%     30.74        
Jan 17 05:55 Calm 10 Clear CLR 6 4     93%     30.75        
Jan 17 04:35 Calm 10 Clear CLR 6 3     88%     30.75        
Jan 17 04:15 Calm 10 Partly Cloudy SCT110 5 2     88%     30.74        
Jan 17 03:55 Calm 10 Partly Cloudy SCT110 6 3     86%     30.75        
Jan 17 03:15 Calm 10 Partly Cloudy SCT110 7 2     83%     30.75        
Jan 17 02:55 Calm 10 Clear CLR 8 4     80%     30.75        
Jan 17 02:35 Calm 10 Partly Cloudy SCT110 8 3     81%     30.75        
Jan 17 02:20 Calm 10 Partly Cloudy SCT110 8 2     79%     30.75        
Jan 17 01:55 Calm 10 Clear CLR 8 4     83%     30.74        
Jan 17 01:35 N 3 10 Clear CLR 9 4     81% 2   30.74        
Jan 17 01:15 N 3 10 Clear CLR 9 5     82% 3   30.75        
Jan 17 00:55 Calm 10 Clear CLR 9 4     81%     30.75        
Jan 17 00:35 Calm 10 Clear CLR 10 4     76%     30.75        
Notice The following observation data may not be complete
Jan 17 00:15   10 Clear CLR          %              
Jan 16 23:55 Calm 10 Clear CLR 9 2     76%     30.76        
Jan 16 23:35 Calm 10 Clear CLR 9 3     74%     30.76        
Notice The following observation data may not be complete
Jan 16 23:15   10 Clear CLR          %              
Jan 16 22:55 Calm 10 Clear CLR 10 5     80%     30.77        
Jan 16 22:35 Calm 10 Clear CLR 11 5     78%     30.77        
Jan 16 22:15 Calm 10 Clear CLR 11 5     76%     30.77        
Jan 16 21:55 Calm 10 Clear CLR 12 5     74%     30.77        
Jan 16 20:35 Calm 10 Clear CLR 13 2     62%     30.76        
Jan 16 20:15 Calm 10 Clear CLR 15 2     57%     30.76        
Jan 16 19:55 Calm 10 Clear CLR 14 2     57%     30.76        
Jan 16 19:35 Calm 10 Clear CLR 17 1     49%     30.75        
Jan 16 18:55 NNW 3 10 Clear CLR 17 1     49% 12   30.74        
Notice The following observation data may not be complete
Jan 16 18:35   10 Clear CLR          %              
Jan 16 18:15 N 7 10 Clear CLR 17 0     47% 8   30.73        
Jan 16 17:55 NNW 7 10 Clear CLR 19 0     41% 10   30.73        
Jan 16 17:35 NNW 10 10 Clear CLR 21 0     40% 10   30.73        
Jan 16 17:15 NNW 11 10 Clear CLR 22 0     38% 11   30.73        
Jan 16 16:55 NNW 16 10 Clear CLR 23 1     38% 10   30.73        
Jan 16 15:55 N 14 10 Clear CLR 25 1     36% 13   30.73        
Jan 16 14:55 NNW 14 10 Clear CLR 25 1     36% 13   30.73        
Jan 16 13:55 NW 14 10 Clear CLR 25 1     36% 13   30.74        
Jan 16 12:55 N 16 10 Clear   23 1     38% 10   30.76        
Jan 16 11:55 N 15 10 Clear CLR 21 1     42% 8   30.81        
Jan 16 09:55 N 15 10 Clear CLR 16 1     52% 1   30.86        
Jan 16 08:55 N 9 10 Clear CLR 12 1     61% 0   30.84        
Jan 16 07:55 N 10 10 Clear CLR 10 0     61% -3   30.83        
Jan 16 06:55 N 11 10 Clear CLR 10 1     66% -4   30.83        
Notice The following observation data may not be complete
Jan 16 06:35   10 Clear CLR          %              
Notice The following observation data may not be complete
Jan 16 06:15   10 Clear CLR          %              
Jan 16 05:55 N 9 10 Clear CLR 12 3     66% 0   30.8        
Jan 16 05:35 N 10 10 Partly Cloudy SCT090 SCT120 13 5     68% 0   30.79        
Jan 16 04:55 N 9 10 Clear CLR 14 6     70% 2   30.78        
Notice The following observation data may not be complete
Jan 16 04:35   10 Partly Cloudy SCT034          %              
Jan 16 04:15 NNE 8 10 Partly Cloudy SCT034 SCT120 15 6     65% 5   30.77        
Jan 16 03:55 N 10 10 Clear CLR 17 5     61% 4   30.76        
Jan 16 03:35 N 13 10 Clear CLR 18 5     57% 4   30.75        
Jan 16 03:15 N 11 10 Clear CLR 18 4     54% 6   30.74        
Jan 16 02:55 N 14 10 Clear CLR 18 3     51% 5   30.74        
Jan 16 02:15 NNE 11 10 Clear CLR 19 5     52% 7   30.73        
Jan 16 01:55 N 10 10 Clear CLR 19 7     58% 8   30.72        
Jan 16 01:35 N 14 10 Clear CLR 19 7     57% 6   30.72        
Jan 16 01:15 NNE 14 10 Clear CLR 19 8     59% 6   30.71        
Jan 16 00:55 N 16 10 Partly Cloudy SCT120 20 8     58% 6   30.71        
Notice The following observation data may not be complete
Jan 16 00:35   10 Cloudy OVC120          %              
Notice The following observation data may not be complete
Jan 16 00:15   10 Cloudy OVC110          %              
Jan 15 23:55 N 18 10 Cloudy OVC100 21 6     52% 6   30.71        
Jan 15 23:35 N 23 10 Cloudy and Windy OVC110 21 5     49% 5   30.7        
Notice The following observation data may not be complete
Jan 15 23:15   10 Cloudy OVC095          %              
Jan 15 22:55 N 23 10 Cloudy and Windy OVC095 22 5     46% 6   30.68        
Jan 15 22:35 N 18 10 Cloudy OVC095 23 7     49% 9   30.68        
Jan 15 22:15 N 22 10 Cloudy and Windy OVC095 24 5     45% 8   30.67        
Jan 15 21:55 N 14 10 Cloudy OVC095 23 9     53% 11   30.66        
Jan 15 21:35 N 21 10 Cloudy and Windy OVC085 25 11     56% 10   30.62        
Notice The following observation data may not be complete
Jan 15 20:35   10 Cloudy OVC075          %              
Notice The following observation data may not be complete
Jan 15 19:35   10 Cloudy OVC075          %              
Jan 15 19:15 NNE 15 10 Cloudy OVC065 29 19     65% 18   30.57        
Jan 15 18:15 NNE 16 10 Cloudy OVC055 32 19     60% 21   30.54        
Jan 15 17:55 N 14 10 Cloudy OVC055 32 19     59% 22   30.52        
Notice The following observation data may not be complete
Jan 15 17:35   10 Cloudy OVC055          %              
Jan 15 17:15 NNE 17 10 Cloudy OVC055 35 20     54% 25   30.5        
Jan 15 16:55 N 14 10 Cloudy OVC055 36 23     60% 27   30.48        
Jan 15 15:55 N 18 10 Cloudy BKN031 OVC055 39 27     60% 30   30.44        
Jan 15 14:55 NNE 18 10 Cloudy BKN031 OVC041 41 28     61% 32   30.41        
Jan 15 13:55 NNE 18 10 Cloudy BKN031 OVC036 43 32     65% 35   30.38        
Jan 15 12:55 NE 20 10 Cloudy and Windy SCT037 OVC049 48 32     53% 41   30.36        
Notice The following observation data may not be complete
Jan 15 10:55 NE 14 10 Clear CLR   30      %     30.37        
Jan 15 09:55 ENE 5 10 Clear CLR 41 30     65% 38   30.36        
Jan 15 07:55 Calm 10 Clear CLR 25 23     93%     30.28        
Jan 15 06:35 Calm 10 Clear CLR 27 24     88%     30.26        
Jan 15 06:15 SE 3 10 Clear CLR 27 25     89% 24   30.25        
Jan 15 05:35 Calm 10 Clear CLR 26 24     90%     30.24        
Jan 15 05:15 SE 3 10 Clear CLR 28 23     84% 24   30.25        
Jan 15 04:55 Calm 10 Clear CLR 24 21     87%     30.25        
Notice The following observation data may not be complete
Jan 15 04:35   10 Clear CLR          %              
Jan 15 04:15 Calm 10 Clear CLR 26 24     93%     30.27        
Jan 15 03:55 Calm 10 Clear CLR 26 23     89%     30.28        
Jan 15 03:35 Calm 10 Clear CLR 26 23     91%     30.29        
Jan 15 02:35 Calm 10 Clear CLR 26 22     82%     30.29        
Jan 15 02:15 Calm 10 Clear CLR 26 22     82%     30.29        
Jan 15 01:55 Calm 10 Clear CLR 27 23     84%     30.3        
Notice The following observation data may not be complete
Jan 15 01:35   10 Clear CLR          %              
Jun 12 07:55 SSE 5 10 Partly Cloudy SCT013 SCT090 77 72     83%   78 29.93        
Notice The following observation data may not be complete
Jun 12 07:15   10 Clear CLR          %              
Jun 11 22:15 SE 5 10 Clear CLR 76 65     67%   77 29.89        
Jun 11 21:15 SE 7 10 Clear CLR 80 63     58%   81 29.86        
Jun 11 16:55 SSE 15 10 Clear CLR 90 68     49%   93 29.87        
Jun 11 02:20 SE 6 10 Clear CLR 73 66     79%   74 29.87        
Jun 10 21:55 SSE 13 10 Clear CLR 80 66     62%   82 29.85        
Notice The following observation data may not be complete
Jun 10 04:15   10 Clear CLR          %              
Notice The following observation data may not be complete
Jun 09 22:15   10 Cloudy OVC037          %              
Jun 08 22:35 ESE 5 10 Clear CLR 71 62     73%   71 29.92        
Jun 08 22:15 ESE 5 10 Clear CLR 71 62     73%   71 29.91        
Jun 08 20:40 E 5 10 Clear CLR 75 62     63%   76 29.89        
Jun 08 10:55 SSE 8 10 Clear CLR 81 59     48%   81 30.03        
Notice The following observation data may not be complete
Jun 08 05:35   10 Clear CLR          %              
Jun 08 04:55 Calm 10 Clear CLR 61 59     93%     30        
Jun 06 12:55 N 15 10 Clear CLR 91 61     36%   91 29.91        
Notice The following observation data may not be complete
Jun 06 08:55   10 Clear CLR          %              
Jun 06 02:55 Calm 7 Clear   70 70     99%     29.86        
Notice The following observation data may not be complete
Jun 06 00:35   10 Clear CLR          %              
Notice The following observation data may not be complete
Jun 05 20:35   10 Clear CLR          %